| time (UTC) | temp C | wind direction | speed KPH | gust KPH | rain 1hr cm | rain 24hr cm | rain mn cm | humidity % | barometer mb |
| 20260504044505 | 5 | 235 | 1.6 | 6.4 | 0.00 | 0.00 | 0.00 | 67 | 1012.4 |
| 20260504043035 | 5 | 270 | 0.0 | 4.8 | 0.00 | 0.00 | 0.00 | 67 | 1012.4 |
| 20260504041556 | 5 | 287 | 0.0 | 4.8 | 0.00 | 0.00 | 0.00 | 66 | 1012.4 |
| 20260504040028 | 5 | 214 | 1.6 | 4.8 | 0.00 | 0.00 | 0.00 | 66 | 1012.4 |
| 20260504034550 | 6 | 226 | 1.6 | 3.2 | 0.00 | 0.00 | 0.00 | 65 | 1012.2 |
| 20260504033023 | 6 | 277 | 1.6 | 4.8 | 0.00 | 0.00 | 0.00 | 65 | 1012.3 |
| 20260504031612 | 6 | 235 | 0.0 | 3.2 | 0.00 | 0.00 | 0.00 | 64 | 1012.3 |
| 20260504030020 | 6 | 293 | 0.0 | 3.2 | 0.00 | 0.00 | 0.00 | 64 | 1012.2 |
| 20260504024546 | 6 | 226 | 0.0 | 3.2 | 0.00 | 0.00 | 0.00 | 62 | 1012.3 |
| 20260504023014 | 6 | 225 | 1.6 | 3.2 | 0.00 | 0.00 | 0.00 | 62 | 1012.2 |
| 20260504021537 | 6 | 205 | 0.0 | 3.2 | 0.00 | 0.00 | 0.00 | 62 | 1012.3 |
| 20260504020009 | 6 | 257 | 0.0 | 0.0 | 0.00 | 0.00 | 0.00 | 62 | 1012.2 |
| 20260504014539 | 7 | 224 | 0.0 | 1.6 | 0.00 | 0.00 | 0.00 | 59 | 1012.0 |
| 20260504013008 | 7 | 222 | 0.0 | 3.2 | 0.00 | 0.00 | 0.00 | 57 | 1012.1 |
| 20260504011538 | 7 | 256 | 0.0 | 1.6 | 0.00 | 0.00 | 0.00 | 53 | 1012.0 |
| 20260504010004 | 8 | 256 | 0.0 | 3.2 | 0.00 | 0.00 | 0.00 | 52 | 1011.9 |
| 20260504004531 | 9 | 161 | 1.6 | 9.7 | 0.00 | 0.00 | 0.00 | 49 | 1011.8 |
| 20260504003057 | 9 | 146 | 3.2 | 11.3 | 0.00 | 0.00 | 0.00 | 50 | 1011.7 |
| 20260504001535 | 10 | 291 | 0.0 | 4.8 | 0.00 | 0.00 | 0.00 | 48 | 1011.6 |
| 20260504000006 | 11 | 172 | 1.6 | 9.7 | 0.00 | 0.00 | 0.00 | 46 | 1011.5 |
| 20260503234537 | 11 | 254 | 3.2 | 19.3 | 0.00 | 0.00 | 0.00 | 42 | 1011.5 |
| 20260503233009 | 12 | 305 | 1.6 | 22.5 | 0.00 | 0.00 | 0.00 | 42 | 1011.5 |
| 20260503231550 | 12 | 269 | 4.8 | 16.1 | 0.00 | 0.00 | 0.00 | 40 | 1011.4 |
| 20260503230008 | 12 | 210 | 11.3 | 20.9 | 0.00 | 0.00 | 0.00 | 40 | 1011.4 |
| 20260503224535 | 12 | 214 | 9.7 | 20.9 | 0.00 | 0.00 | 0.00 | 40 | 1011.3 |
| 20260503223100 | 12 | 295 | 6.4 | 19.3 | 0.00 | 0.00 | 0.00 | 41 | 1011.4 |
| 20260503223002 | 12 | 291 | 6.4 | 19.3 | 0.00 | 0.00 | 0.00 | 41 | 1011.3 |
| 20260503221529 | 12 | 271 | 8.0 | 20.9 | 0.00 | 0.00 | 0.00 | 41 | 1011.5 |
| 20260503220052 | 12 | 323 | 6.4 | 25.7 | 0.00 | 0.00 | 0.00 | 40 | 1011.4 |
| 20260503214527 | 13 | 288 | 6.4 | 14.5 | 0.00 | 0.00 | 0.00 | 38 | 1011.5 |
| 20260503213120 | 12 | 334 | 8.0 | 20.9 | 0.00 | 0.00 | 0.00 | 41 | 1011.5 |
| 20260503211524 | 12 | 262 | 9.7 | 22.5 | 0.00 | 0.00 | 0.00 | 40 | 1011.2 |
| 20260503210046 | 12 | 235 | 9.7 | 30.6 | 0.00 | 0.00 | 0.00 | 41 | 1011.4 |
| 20260503204509 | 12 | 298 | 9.7 | 24.1 | 0.00 | 0.00 | 0.00 | 39 | 1011.3 |
| 20260503203041 | 12 | 294 | 11.3 | 29.0 | 0.00 | 0.00 | 0.00 | 40 | 1011.3 |
| 20260503201510 | 12 | 263 | 9.7 | 24.1 | 0.00 | 0.00 | 0.00 | 40 | 1011.3 |
| 20260503200036 | 12 | 250 | 9.7 | 22.5 | 0.00 | 0.00 | 0.00 | 41 | 1011.5 |
| 20260503194557 | 12 | 307 | 6.4 | 25.7 | 0.00 | 0.00 | 0.00 | 40 | 1011.9 |
| 20260503193030 | 12 | 347 | 9.7 | 30.6 | 0.00 | 0.00 | 0.00 | 42 | 1012.0 |
| 20260503191604 | 11 | 344 | 16.1 | 29.0 | 0.00 | 0.00 | 0.00 | 41 | 1012.3 |
| 20260503190037 | 11 | 287 | 8.0 | 22.5 | 0.00 | 0.00 | 0.00 | 41 | 1012.5 |
| 20260503184507 | 11 | 278 | 8.0 | 19.3 | 0.00 | 0.00 | 0.00 | 40 | 1012.5 |
| 20260503183043 | 11 | 302 | 6.4 | 25.7 | 0.00 | 0.00 | 0.00 | 42 | 1012.5 |
| 20260503181507 | 12 | 304 | 12.9 | 25.7 | 0.00 | 0.00 | 0.00 | 41 | 1012.6 |
| 20260503180031 | 11 | 278 | 9.7 | 25.7 | 0.00 | 0.00 | 0.00 | 42 | 1012.7 |
| 20260503174610 | 11 | 269 | 12.9 | 27.4 | 0.00 | 0.00 | 0.00 | 40 | 1012.6 |
| 20260503173024 | 11 | 283 | 12.9 | 32.2 | 0.00 | 0.00 | 0.00 | 41 | 1012.9 |
| 20260503171554 | 11 | 330 | 14.5 | 24.1 | 0.00 | 0.00 | 0.00 | 40 | 1012.7 |
| 20260503150105 | 7 | 217 | 9.7 | 20.9 | 0.00 | 0.00 | 0.00 | 50 | 1014.4 |
| 20260503081552 | 1 | 314 | 4.8 | 11.3 | 0.00 | 0.00 | 0.00 | 77 | 1013.5 |
| 20260503071530 | 1 | 285 | 4.8 | 12.9 | 0.00 | 0.00 | 0.00 | 75 | 1013.2 |
| 20260503054503 | 2 | 316 | 0.0 | 3.2 | 0.00 | 0.00 | 0.00 | 71 | 1013.5 |
| 20260503053035 | 2 | 27 | 0.0 | 4.8 | 0.00 | 0.00 | 0.00 | 71 | 1013.6 |
| 20260503051557 | 2 | 327 | 3.2 | 6.4 | 0.00 | 0.00 | 0.00 | 70 | 1013.6 |
| 20260503050023 | 2 | 27 | 3.2 | 6.4 | 0.00 | 0.00 | 0.00 | 69 | 1013.7 |